datetime,flow
2001-09-08,141.0
2001-09-09,143.0
2001-09-10,140.0
2001-09-11,138.0
2001-09-12,135.0
2001-09-13,130.0
2001-09-14,132.0
2001-09-15,136.0
2001-09-16,141.0
2001-09-17,144.0
2001-09-18,142.0
2001-09-19,140.0
2001-09-20,138.0
2001-09-21,139.0
2001-09-22,139.0
2001-09-23,137.0
2001-09-24,141.0
2001-09-25,145.0
2001-09-26,144.0
2001-09-27,149.0
2001-09-28,155.0
2001-09-29,159.0
2001-09-30,159.0
2001-10-01,153.0
2001-10-02,130.0
2001-10-03,134.0
2001-10-04,136.0
2001-10-05,143.0
2001-10-06,141.0
2001-10-07,142.0
2001-10-08,144.0
2001-10-09,147.0
2001-10-10,147.0
2001-10-11,145.0
2001-10-12,145.0
2001-10-13,144.0
2001-10-14,145.0
2001-10-15,140.0
2001-10-16,136.0
2001-10-17,130.0
2001-10-18,127.0
2001-10-19,126.0
2001-10-20,127.0
2001-10-21,129.0
2001-10-22,130.0
2001-10-23,131.0
2001-10-24,132.0
2001-10-25,131.0
2001-10-26,128.0
2001-10-27,127.0
2001-10-28,128.0
2001-10-29,128.0
2001-10-30,130.0
2001-10-31,128.0
2001-11-01,124.0
2001-11-02,124.0
2001-11-03,123.0
2001-11-04,123.0
2001-11-05,124.0
2001-11-06,124.0
2001-11-07,127.0
2001-11-08,125.0
2001-11-09,127.0
2001-11-10,128.0
2001-11-11,128.0
2001-11-12,127.0
2001-11-13,127.0
2001-11-14,127.0
2001-11-15,127.0
2001-11-16,126.0
2001-11-17,131.0
2001-11-18,135.0
2001-11-19,135.0
2001-11-20,134.0
2001-11-21,134.0
2001-11-22,140.0
2001-11-23,138.0
2001-11-24,138.0
2001-11-25,138.0
2001-11-26,137.0
2001-11-27,137.0
2001-11-28,136.0
2001-11-29,137.0
2001-11-30,137.0
2001-12-01,137.0
2001-12-02,138.0
2001-12-03,140.0
2001-12-04,139.0
2001-12-05,138.0
2001-12-06,139.0
2001-12-07,139.0
2001-12-08,137.0
2001-12-09,137.0
2001-12-10,137.0
2001-12-11,137.0
2001-12-12,137.0
2001-12-13,136.0
2001-12-14,138.0
2001-12-15,137.0
2001-12-16,136.0
2001-12-17,136.0
2001-12-18,137.0
2001-12-19,137.0
2001-12-20,136.0
2001-12-21,136.0
2001-12-22,136.0
2001-12-23,135.0
2001-12-24,136.0
2001-12-25,136.0
2001-12-26,136.0
2001-12-27,136.0
2001-12-28,137.0
2001-12-29,137.0
2001-12-30,137.0
2001-12-31,137.0
2002-01-01,137.0
2002-01-02,136.0
2002-01-03,137.0
2002-01-04,137.0
2002-01-05,137.0
2002-01-06,137.0
2002-01-07,137.0
2002-01-08,137.0
2002-01-09,138.0
2002-01-10,137.0
2002-01-11,137.0
2002-01-12,137.0
2002-01-13,137.0
2002-01-14,137.0
2002-01-15,136.0
2002-01-16,136.0
2002-01-17,137.0
2002-01-18,136.0
2002-01-19,136.0
2002-01-20,137.0
2002-01-21,137.0
2002-01-22,137.0
2002-01-23,136.0
2002-01-24,136.0
2002-01-25,137.0
2002-01-26,136.0
2002-01-27,137.0
2002-01-28,138.0
2002-01-29,138.0
2002-01-30,137.0
2002-01-31,137.0
2002-02-01,137.0
2002-02-02,138.0
2002-02-03,138.0
2002-02-04,137.0
2002-02-05,139.0
2002-02-06,137.0
2002-02-07,135.0
2002-02-08,136.0
2002-02-09,135.0
2002-02-10,135.0
2002-02-11,135.0
2002-02-12,136.0
2002-02-13,137.0
2002-02-14,139.0
2002-02-15,137.0
2002-02-16,135.0
2002-02-17,135.0
2002-02-18,135.0
2002-02-19,136.0
2002-02-20,138.0
2002-02-21,137.0
2002-02-22,138.0
2002-02-23,139.0
2002-02-24,138.0
2002-02-25,138.0
2002-02-26,137.0
2002-02-27,136.0
2002-02-28,136.0
2002-03-01,137.0
2002-03-02,137.0
2002-03-03,137.0
2002-03-04,135.0
2002-03-05,135.0
2002-03-06,137.0
2002-03-07,139.0
2002-03-08,139.0
2002-03-09,136.0
2002-03-10,136.0
2002-03-11,139.0
2002-03-12,138.0
2002-03-13,142.0
2002-03-14,139.0
2002-03-15,139.0
2002-03-16,138.0
2002-03-17,138.0
2002-03-18,137.0
2002-03-19,137.0
2002-03-20,138.0
2002-03-21,137.0
2002-03-22,138.0
2002-03-23,138.0
2002-03-24,137.0
2002-03-25,137.0
2002-03-26,138.0
2002-03-27,139.0
2002-03-28,139.0
2002-03-29,139.0
2002-03-30,139.0
2002-03-31,139.0
2002-04-01,138.0
2002-04-02,137.0
2002-04-03,134.0
2002-04-04,129.0
2002-04-05,130.0
2002-04-06,131.0
2002-04-07,131.0
2002-04-08,131.0
2002-04-09,129.0
2002-04-10,128.0
2002-04-11,128.0
2002-04-12,131.0
2002-04-13,145.0
2002-04-14,132.0
2002-04-15,128.0
2002-04-16,129.0
2002-04-17,128.0
2002-04-18,127.0
2002-04-19,127.0
2002-04-20,129.0
2002-04-21,128.0
2002-04-22,127.0
2002-04-23,133.0
2002-04-24,145.0
2002-04-25,146.0
2002-04-26,145.0
2002-04-27,150.0
2002-04-28,158.0
2002-04-29,132.0
2002-04-30,120.0
2002-05-01,121.0
2002-05-02,123.0
2002-05-03,127.0
2002-05-04,127.0
2002-05-05,125.0
2002-05-06,126.0
2002-05-07,122.0
2002-05-08,506.0
2002-05-09,659.0
2002-05-10,285.0
2002-05-11,133.0
2002-05-12,131.0
2002-05-13,129.0
2002-05-14,127.0
2002-05-15,127.0
2002-05-16,128.0
2002-05-17,128.0
2002-05-18,127.0
2002-05-19,127.0
2002-05-20,315.0
2002-05-21,675.0
2002-05-22,1090.0
2002-05-23,827.0
2002-05-24,260.0
2002-05-25,149.0
2002-05-26,143.0
2002-05-27,141.0
2002-05-28,138.0
2002-05-29,134.0
2002-05-30,133.0
2002-05-31,130.0
2002-06-01,126.0
2002-06-02,134.0
2002-06-03,136.0
2002-06-04,138.0
2002-06-05,154.0
2002-06-06,147.0
2002-06-07,131.0
2002-06-08,129.0
2002-06-09,129.0
2002-06-10,133.0
2002-06-11,134.0
2002-06-12,133.0
2002-06-13,133.0
2002-06-14,132.0
2002-06-15,129.0
2002-06-16,128.0
2002-06-17,137.0
2002-06-18,140.0
2002-06-19,138.0
2002-06-20,136.0
2002-06-21,137.0
2002-06-22,136.0
2002-06-23,135.0
2002-06-24,135.0
2002-06-25,133.0
2002-06-26,130.0
2002-06-27,132.0
2002-06-28,128.0
2002-06-29,130.0
2002-06-30,129.0
2002-07-01,129.0
2002-07-02,128.0
2002-07-03,128.0
2002-07-04,128.0
2002-07-05,127.0
2002-07-06,129.0
2002-07-07,131.0
2002-07-08,132.0
2002-07-09,130.0
2002-07-10,131.0
2002-07-11,135.0
2002-07-12,135.0
2002-07-13,135.0
2002-07-14,132.0
2002-07-15,133.0
2002-07-16,133.0
2002-07-17,134.0
2002-07-18,138.0
2002-07-19,140.0
2002-07-20,140.0
2002-07-21,141.0
2002-07-22,141.0
2002-07-23,143.0
2002-07-24,138.0
2002-07-25,131.0
2002-07-26,134.0
2002-07-27,139.0
2002-07-28,134.0
2002-07-29,128.0
2002-07-30,120.0
2002-07-31,135.0
2002-08-01,137.0
2002-08-02,141.0
2002-08-03,143.0
2002-08-04,142.0
2002-08-05,141.0
2002-08-06,134.0
2002-08-07,136.0
2002-08-08,139.0
2002-08-09,140.0
2002-08-10,140.0
2002-08-11,141.0
2002-08-12,138.0
2002-08-13,133.0
2002-08-14,132.0
2002-08-15,128.0
2002-08-16,132.0
2002-08-17,136.0
2002-08-18,137.0
2002-08-19,146.0
2002-08-20,144.0
2002-08-21,139.0
2002-08-22,138.0
2002-08-23,136.0
2002-08-24,136.0
2002-08-25,138.0
2002-08-26,142.0
2002-08-27,142.0
2002-08-28,146.0
2002-08-29,147.0
2002-08-30,150.0
2002-08-31,149.0
2002-09-01,148.0
2002-09-02,144.0
2002-09-03,135.0
2002-09-04,138.0
2002-09-05,143.0
2002-09-06,158.0
2002-09-07,173.0
2002-09-08,179.0
2002-09-09,187.0
2002-09-10,186.0
2002-09-11,178.0
2002-09-12,182.0
2002-09-13,187.0
2002-09-14,185.0
2002-09-15,183.0
2002-09-16,189.0
2002-09-17,182.0
2002-09-18,181.0
2002-09-19,160.0
2002-09-20,138.0
2002-09-21,136.0
2002-09-22,137.0
2002-09-23,134.0
2002-09-24,129.0
2002-09-25,130.0
2002-09-26,133.0
2002-09-27,138.0
2002-09-28,141.0
2002-09-29,149.0
2002-09-30,151.0
2002-10-01,163.0
2002-10-02,150.0
2002-10-03,148.0
2002-10-04,149.0
2002-10-05,152.0
2002-10-06,152.0
2002-10-07,158.0
2002-10-08,158.0
2002-10-09,157.0
2002-10-10,158.0
2002-10-11,158.0
2002-10-12,158.0
2002-10-13,159.0
2002-10-14,158.0
2002-10-15,158.0
2002-10-16,159.0
2002-10-17,154.0
2002-10-18,150.0
2002-10-19,151.0
2002-10-20,151.0
2002-10-21,151.0
2002-10-22,150.0
2002-10-23,150.0
2002-10-24,149.0
2002-10-25,146.0
2002-10-26,147.0
2002-10-27,147.0
2002-10-28,147.0
2002-10-29,148.0
2002-10-30,149.0
2002-10-31,149.0
2002-11-01,143.0
2002-11-02,140.0
2002-11-03,139.0
2002-11-04,139.0
2002-11-05,139.0
2002-11-06,138.0
2002-11-07,137.0
2002-11-08,143.0
2002-11-09,148.0
2002-11-10,143.0
2002-11-11,143.0
2002-11-12,143.0
2002-11-13,138.0
2002-11-14,137.0
2002-11-15,138.0
2002-11-16,137.0
2002-11-17,138.0
2002-11-18,135.0
2002-11-19,133.0
2002-11-20,132.0
2002-11-21,134.0
2002-11-22,134.0
2002-11-23,134.0
2002-11-24,135.0
2002-11-25,134.0
2002-11-26,134.0
2002-11-27,135.0
2002-11-28,135.0
2002-11-29,135.0
2002-11-30,136.0
2002-12-01,136.0
2002-12-02,135.0
2002-12-03,134.0
2002-12-04,133.0
2002-12-05,133.0
2002-12-06,133.0
2002-12-07,137.0
2002-12-08,139.0
2002-12-09,138.0
2002-12-10,138.0
2002-12-11,138.0
2002-12-12,137.0
2002-12-13,134.0
2002-12-14,136.0
2002-12-15,136.0
2002-12-16,137.0
2002-12-17,139.0
2002-12-18,138.0
2002-12-19,137.0
2002-12-20,138.0
2002-12-21,138.0
2002-12-22,137.0
2002-12-23,138.0
2002-12-24,138.0
2002-12-25,138.0
2002-12-26,138.0
2002-12-27,139.0
2002-12-28,139.0
2002-12-29,139.0
2002-12-30,138.0
2002-12-31,141.0
2003-01-01,139.0
2003-01-02,139.0
2003-01-03,140.0
2003-01-04,140.0
2003-01-05,140.0
2003-01-06,138.0
2003-01-07,135.0
2003-01-08,135.0
2003-01-09,134.0
2003-01-10,135.0
2003-01-11,135.0
2003-01-12,137.0
2003-01-13,138.0
2003-01-14,139.0
2003-01-15,140.0
2003-01-16,139.0
2003-01-17,139.0
2003-01-18,138.0
2003-01-19,139.0
2003-01-20,139.0
2003-01-21,139.0
2003-01-22,138.0
2003-01-23,140.0
2003-01-24,140.0
2003-01-25,141.0
2003-01-26,141.0
2003-01-27,141.0
2003-01-28,143.0
2003-01-29,141.0
2003-01-30,140.0
2003-01-31,142.0
2003-02-01,143.0
2003-02-02,145.0
2003-02-03,142.0
2003-02-04,142.0
2003-02-05,139.0
2003-02-06,139.0
2003-02-07,139.0
2003-02-08,139.0
2003-02-09,138.0
2003-02-10,138.0
2003-02-11,138.0
2003-02-12,139.0
2003-02-13,140.0
2003-02-14,142.0
2003-02-15,141.0
2003-02-16,141.0
2003-02-17,141.0
2003-02-18,138.0
2003-02-19,135.0
2003-02-20,135.0
2003-02-21,136.0
2003-02-22,137.0
2003-02-23,138.0
2003-02-24,138.0
2003-02-25,138.0
2003-02-26,138.0
2003-02-27,138.0
2003-02-28,137.0
2003-03-01,138.0
2003-03-02,138.0
2003-03-03,138.0
2003-03-04,138.0
2003-03-05,133.0
2003-03-06,130.0
2003-03-07,130.0
2003-03-08,129.0
2003-03-09,128.0
2003-03-10,127.0
2003-03-11,128.0
2003-03-12,127.0
2003-03-13,126.0
2003-03-14,126.0
2003-03-15,128.0
2003-03-16,130.0
2003-03-17,129.0
2003-03-18,129.0
2003-03-19,129.0
2003-03-20,129.0
2003-03-21,128.0
2003-03-22,127.0
2003-03-23,127.0
2003-03-24,127.0
2003-03-25,124.0
2003-03-26,125.0
2003-03-27,124.0
2003-03-28,124.0
2003-03-29,124.0
2003-03-30,124.0
2003-03-31,125.0
2003-04-01,125.0
2003-04-02,124.0
2003-04-03,125.0
2003-04-04,125.0
2003-04-05,126.0
2003-04-06,125.0
2003-04-07,125.0
2003-04-08,125.0
2003-04-09,124.0
2003-04-10,126.0
2003-04-11,126.0
2003-04-12,125.0
2003-04-13,125.0
2003-04-14,123.0
2003-04-15,125.0
2003-04-16,122.0
2003-04-17,130.0
2003-04-18,121.0
2003-04-19,125.0
2003-04-20,129.0
2003-04-21,130.0
2003-04-22,134.0
2003-04-23,135.0
2003-04-24,134.0
2003-04-25,133.0
2003-04-26,127.0
2003-04-27,127.0
2003-04-28,129.0
2003-04-29,127.0
2003-04-30,139.0
2003-05-01,147.0
2003-05-02,143.0
2003-05-03,143.0
2003-05-04,146.0
2003-05-05,137.0
2003-05-06,132.0
2003-05-07,136.0
2003-05-08,129.0
2003-05-09,131.0
2003-05-10,134.0
2003-05-11,131.0
2003-05-12,129.0
2003-05-13,131.0
2003-05-14,134.0
2003-05-15,128.0
2003-05-16,130.0
2003-05-17,131.0
2003-05-18,127.0
2003-05-19,125.0
2003-05-20,130.0
2003-05-21,130.0
2003-05-22,128.0
2003-05-23,128.0
2003-05-24,129.0
2003-05-25,130.0
2003-05-26,129.0
2003-05-27,126.0
2003-05-28,124.0
2003-05-29,130.0
2003-05-30,132.0
2003-05-31,130.0
2003-06-01,128.0
2003-06-02,128.0
2003-06-03,128.0
2003-06-04,126.0
2003-06-05,129.0
2003-06-06,212.0
2003-06-07,274.0
2003-06-08,275.0
2003-06-09,278.0
2003-06-10,283.0
2003-06-11,283.0
2003-06-12,284.0
2003-06-13,282.0
2003-06-14,283.0
2003-06-15,279.0
2003-06-16,690.0
2003-06-17,1350.0
2003-06-18,1340.0
2003-06-19,1130.0
2003-06-20,856.0
2003-06-21,653.0
2003-06-22,504.0
2003-06-23,456.0
2003-06-24,469.0
2003-06-25,325.0
2003-06-26,122.0
2003-06-27,117.0
2003-06-28,120.0
2003-06-29,117.0
2003-06-30,118.0
2003-07-01,128.0
2003-07-02,131.0
2003-07-03,131.0
2003-07-04,132.0
2003-07-05,131.0
2003-07-06,127.0
2003-07-07,130.0
2003-07-08,130.0
2003-07-09,127.0
2003-07-10,130.0
2003-07-11,130.0
2003-07-12,123.0
2003-07-13,122.0
2003-07-14,134.0
2003-07-15,132.0
2003-07-16,126.0
2003-07-17,128.0
2003-07-18,128.0
2003-07-19,128.0
2003-07-20,128.0
2003-07-21,130.0
2003-07-22,121.0
2003-07-23,118.0
2003-07-24,118.0
2003-07-25,117.0
2003-07-26,114.0
2003-07-27,119.0
2003-07-28,118.0
2003-07-29,120.0
2003-07-30,114.0
2003-07-31,115.0
2003-08-01,118.0
2003-08-02,122.0
2003-08-03,128.0
2003-08-04,125.0
2003-08-05,124.0
2003-08-06,118.0
2003-08-07,119.0
2003-08-08,127.0
2003-08-09,128.0
2003-08-10,126.0
2003-08-11,126.0
2003-08-12,124.0
2003-08-13,125.0
2003-08-14,121.0
2003-08-15,119.0
2003-08-16,119.0
2003-08-17,123.0
2003-08-18,118.0
2003-08-19,118.0
2003-08-20,116.0
2003-08-21,119.0
2003-08-22,125.0
2003-08-23,126.0
2003-08-24,129.0
2003-08-25,132.0
2003-08-26,129.0
2003-08-27,128.0
2003-08-28,127.0
2003-08-29,122.0
2003-08-30,119.0
2003-08-31,121.0
2003-09-01,130.0
2003-09-02,131.0
2003-09-03,134.0
2003-09-04,136.0
2003-09-05,132.0
2003-09-06,113.0
2003-09-07,117.0
2003-09-08,120.0
2003-09-09,123.0
2003-09-10,133.0
2003-09-11,125.0
2003-09-12,124.0
2003-09-13,123.0
2003-09-14,125.0
2003-09-15,125.0
2003-09-16,122.0
2003-09-17,130.0
2003-09-18,129.0
2003-09-19,122.0
2003-09-20,118.0
2003-09-21,118.0
2003-09-22,118.0
2003-09-23,117.0
2003-09-24,120.0
2003-09-25,120.0
2003-09-26,121.0
2003-09-27,121.0
2003-09-28,123.0
2003-09-29,123.0
2003-09-30,119.0
2003-10-01,118.0
2003-10-02,120.0
2003-10-03,119.0
2003-10-04,116.0
2003-10-05,116.0
2003-10-06,118.0
2003-10-07,119.0
2003-10-08,118.0
2003-10-09,116.0
2003-10-10,113.0
2003-10-11,114.0
2003-10-12,115.0
2003-10-13,117.0
2003-10-14,118.0
2003-10-15,122.0
2003-10-16,124.0
2003-10-17,122.0
2003-10-18,126.0
2003-10-19,129.0
2003-10-20,128.0
2003-10-21,121.0
2003-10-22,115.0
2003-10-23,115.0
2003-10-24,118.0
2003-10-25,121.0
2003-10-26,120.0
2003-10-27,121.0
2003-10-28,122.0
2003-10-29,124.0
2003-10-30,123.0
2003-10-31,121.0
2003-11-01,121.0
2003-11-02,124.0
2003-11-03,126.0
2003-11-04,123.0
2003-11-05,121.0
2003-11-06,123.0
2003-11-07,125.0
2003-11-08,126.0
2003-11-09,128.0
2003-11-10,131.0
2003-11-11,132.0
2003-11-12,129.0
2003-11-13,131.0
2003-11-14,132.0
2003-11-15,131.0
2003-11-16,133.0
2003-11-17,133.0
2003-11-18,132.0
2003-11-19,130.0
2003-11-20,129.0
2003-11-21,129.0
2003-11-22,129.0
2003-11-23,129.0
2003-11-24,129.0
2003-11-25,129.0
2003-11-26,128.0
2003-11-27,128.0
2003-11-28,128.0
2003-11-29,129.0
2003-11-30,130.0
2003-12-01,126.0
2003-12-02,126.0
2003-12-03,126.0
2003-12-04,126.0
2003-12-05,130.0
2003-12-06,133.0
2003-12-07,134.0
2003-12-08,132.0
2003-12-09,130.0
2003-12-10,130.0
2003-12-11,131.0
2003-12-12,132.0
2003-12-13,132.0
2003-12-14,133.0
2003-12-15,133.0
2003-12-16,134.0
2003-12-17,134.0
2003-12-18,135.0
2003-12-19,135.0
2003-12-20,135.0
2003-12-21,137.0
2003-12-22,132.0
2003-12-23,126.0
2003-12-24,127.0
2003-12-25,129.0
2003-12-26,130.0
2003-12-27,128.0
2003-12-28,128.0
2003-12-29,130.0
2003-12-30,130.0
2003-12-31,130.0
2004-01-01,131.0
2004-01-02,130.0
2004-01-03,129.0
2004-01-04,129.0
2004-01-05,129.0
2004-01-06,129.0
2004-01-07,130.0
2004-01-08,130.0
2004-01-09,130.0
2004-01-10,130.0
2004-01-11,130.0
2004-01-12,131.0
2004-01-13,133.0
2004-01-14,133.0
2004-01-15,133.0
2004-01-16,133.0
2004-01-17,136.0
2004-01-18,137.0
2004-01-19,138.0
2004-01-20,138.0
2004-01-21,138.0
2004-01-22,137.0
2004-01-23,138.0
2004-01-24,138.0
2004-01-25,138.0
2004-01-26,138.0
2004-01-27,138.0
2004-01-28,139.0
2004-01-29,138.0
2004-01-30,139.0
2004-01-31,138.0
2004-02-01,138.0
2004-02-02,138.0
2004-02-03,139.0
2004-02-04,138.0
2004-02-05,137.0
2004-02-06,133.0
2004-02-07,133.0
2004-02-08,133.0
2004-02-09,133.0
2004-02-10,133.0
2004-02-11,132.0
2004-02-12,141.0
2004-02-13,131.0
2004-02-14,131.0
2004-02-15,132.0
2004-02-16,135.0
2004-02-17,136.0
2004-02-18,137.0
2004-02-19,137.0
2004-02-20,136.0
2004-02-21,136.0
2004-02-22,137.0
2004-02-23,137.0
2004-02-24,137.0
2004-02-25,137.0
2004-02-26,142.0
2004-02-27,140.0
2004-02-28,139.0
2004-02-29,138.0
2004-03-01,138.0
2004-03-02,137.0
2004-03-03,136.0
2004-03-04,135.0
2004-03-05,136.0
2004-03-06,137.0
2004-03-07,136.0
2004-03-08,137.0
2004-03-09,138.0
2004-03-10,141.0
2004-03-11,140.0
2004-03-12,140.0
2004-03-13,140.0
2004-03-14,140.0
2004-03-15,140.0
2004-03-16,140.0
2004-03-17,138.0
2004-03-18,138.0
2004-03-19,137.0
2004-03-20,136.0
2004-03-21,135.0
2004-03-22,134.0
2004-03-23,134.0
2004-03-24,134.0
2004-03-25,134.0
2004-03-26,137.0
2004-03-27,135.0
2004-03-28,135.0
2004-03-29,134.0
2004-03-30,133.0
2004-03-31,133.0
2004-04-01,133.0
2004-04-02,133.0
2004-04-03,133.0
2004-04-04,133.0
2004-04-05,133.0
2004-04-06,133.0
2004-04-07,133.0
2004-04-08,134.0
2004-04-09,134.0
2004-04-10,134.0
2004-04-11,133.0
2004-04-12,132.0
2004-04-13,130.0
2004-04-14,132.0
2004-04-15,145.0
2004-04-16,157.0
2004-04-17,154.0
2004-04-18,149.0
2004-04-19,144.0
2004-04-20,139.0
2004-04-21,144.0
2004-04-22,142.0
2004-04-23,139.0
2004-04-24,139.0
2004-04-25,138.0
2004-04-26,144.0
2004-04-27,146.0
2004-04-28,155.0
2004-04-29,167.0
2004-04-30,172.0
2004-05-01,161.0
2004-05-02,160.0
2004-05-03,147.0
2004-05-04,131.0
2004-05-05,132.0
2004-05-06,131.0
2004-05-07,132.0
2004-05-08,133.0
2004-05-09,132.0
2004-05-10,131.0
2004-05-11,133.0
2004-05-12,136.0
2004-05-13,137.0
2004-05-14,136.0
2004-05-15,131.0
2004-05-16,127.0
2004-05-17,130.0
2004-05-18,131.0
2004-05-19,258.0
2004-05-20,623.0
2004-05-21,885.0
2004-05-22,1200.0
2004-05-23,1480.0
2004-05-24,1510.0
2004-05-25,1180.0
2004-05-26,1030.0
2004-05-27,983.0
2004-05-28,924.0
2004-05-29,866.0
2004-05-30,813.0
2004-05-31,776.0
2004-06-01,710.0
2004-06-02,665.0
2004-06-03,619.0
2004-06-04,564.0
2004-06-05,512.0
2004-06-06,463.0
2004-06-07,419.0
2004-06-08,365.0
2004-06-09,312.0
2004-06-10,272.0
2004-06-11,240.0
2004-06-12,203.0
2004-06-13,163.0
2004-06-14,153.0
2004-06-15,150.0
2004-06-16,150.0
2004-06-17,150.0
2004-06-18,149.0
2004-06-19,149.0
2004-06-20,147.0
2004-06-21,147.0
2004-06-22,143.0
2004-06-23,138.0
2004-06-24,136.0
2004-06-25,138.0
2004-06-26,140.0
2004-06-27,141.0
2004-06-28,146.0
2004-06-29,146.0
2004-06-30,135.0
2004-07-01,140.0
2004-07-02,140.0
2004-07-03,143.0
2004-07-04,138.0
2004-07-05,134.0
2004-07-06,130.0
2004-07-07,131.0
2004-07-08,132.0
2004-07-09,127.0
2004-07-10,134.0
2004-07-11,134.0
2004-07-12,132.0
2004-07-13,130.0
2004-07-14,127.0
2004-07-15,127.0
2004-07-16,151.0
2004-07-17,175.0
2004-07-18,165.0
2004-07-19,170.0
2004-07-20,165.0
2004-07-21,152.0
2004-07-22,152.0
2004-07-23,159.0
2004-07-24,157.0
2004-07-25,158.0
2004-07-26,159.0
2004-07-27,159.0
2004-07-28,157.0
2004-07-29,152.0
2004-07-30,149.0
2004-07-31,151.0
2004-08-01,150.0
2004-08-02,149.0
2004-08-03,155.0
2004-08-04,153.0
2004-08-05,151.0
2004-08-06,147.0
2004-08-07,151.0
2004-08-08,152.0
2004-08-09,152.0
2004-08-10,146.0
2004-08-11,145.0
2004-08-12,141.0
2004-08-13,148.0
2004-08-14,143.0
2004-08-15,137.0
2004-08-16,138.0
2004-08-17,145.0
2004-08-18,151.0
2004-08-19,153.0
2004-08-20,146.0
2004-08-21,150.0
2004-08-22,158.0
2004-08-23,165.0
2004-08-24,164.0
2004-08-25,158.0
2004-08-26,149.0
2004-08-27,143.0
2004-08-28,142.0
2004-08-29,138.0
2004-08-30,145.0
2004-08-31,143.0
2004-09-01,145.0
2004-09-02,158.0
2004-09-03,155.0
2004-09-04,158.0
2004-09-05,173.0
2004-09-06,173.0
2004-09-07,176.0
2004-09-08,185.0
2004-09-09,178.0
2004-09-10,170.0
2004-09-11,165.0
2004-09-12,172.0
2004-09-13,171.0
2004-09-14,167.0
2004-09-15,168.0
2004-09-16,180.0
2004-09-17,174.0
2004-09-18,158.0
2004-09-19,160.0
2004-09-20,170.0
2004-09-21,178.0
2004-09-22,161.0
2004-09-23,131.0
2004-09-24,125.0
2004-09-25,124.0
2004-09-26,122.0
2004-09-27,123.0
2004-09-28,125.0
2004-09-29,136.0
2004-09-30,139.0
2004-10-01,144.0
2004-10-02,145.0
2004-10-03,143.0
2004-10-04,145.0
2004-10-05,139.0
2004-10-06,131.0
2004-10-07,131.0
2004-10-08,131.0
2004-10-09,134.0
2004-10-10,135.0
2004-10-11,132.0
2004-10-12,133.0
2004-10-13,131.0
2004-10-14,132.0
2004-10-15,145.0
2004-10-16,145.0
2004-10-17,139.0
2004-10-18,136.0
2004-10-19,137.0
2004-10-20,142.0
2004-10-21,138.0
2004-10-22,136.0
2004-10-23,132.0
2004-10-24,132.0
2004-10-25,133.0
2004-10-26,126.0
2004-10-27,123.0
2004-10-28,126.0
2004-10-29,125.0
2004-10-30,127.0
2004-10-31,128.0
2004-11-01,128.0
2004-11-02,128.0
2004-11-03,127.0
2004-11-04,126.0
2004-11-05,122.0
2004-11-06,123.0
2004-11-07,122.0
2004-11-08,121.0
2004-11-09,120.0
2004-11-10,122.0
2004-11-11,123.0
2004-11-12,124.0
2004-11-13,124.0
2004-11-14,124.0
2004-11-15,124.0
2004-11-16,122.0
2004-11-17,121.0
2004-11-18,122.0
2004-11-19,123.0
2004-11-20,124.0
2004-11-21,125.0
2004-11-22,121.0
2004-11-23,117.0
2004-11-24,118.0
2004-11-25,119.0
2004-11-26,120.0
2004-11-27,121.0
2004-11-28,120.0
2004-11-29,119.0
2004-11-30,119.0
2004-12-01,120.0
2004-12-02,120.0
2004-12-03,119.0
2004-12-04,119.0
2004-12-05,120.0
2004-12-06,121.0
2004-12-07,121.0
2004-12-08,124.0
2004-12-09,126.0
2004-12-10,124.0
2004-12-11,123.0
2004-12-12,123.0
2004-12-13,123.0
2004-12-14,123.0
2004-12-15,122.0
2004-12-16,122.0
2004-12-17,122.0
2004-12-18,122.0
2004-12-19,122.0
2004-12-20,122.0
2004-12-21,119.0
2004-12-22,118.0
2004-12-23,118.0
2004-12-24,118.0
2004-12-25,118.0
2004-12-26,118.0
2004-12-27,119.0
2004-12-28,119.0
2004-12-29,124.0
2004-12-30,122.0
2004-12-31,122.0
2005-01-01,122.0
2005-01-02,121.0
2005-01-03,121.0
2005-01-04,122.0
2005-01-05,122.0
2005-01-06,122.0
2005-01-07,122.0
2005-01-08,123.0
2005-01-09,130.0
2005-01-10,145.0
2005-01-11,147.0
2005-01-12,139.0
2005-01-13,134.0
2005-01-14,131.0
2005-01-15,132.0
2005-01-16,135.0
2005-01-17,135.0
2005-01-18,131.0
2005-01-19,128.0
2005-01-20,128.0
2005-01-21,127.0
2005-01-22,127.0
2005-01-23,127.0
2005-01-24,127.0
2005-01-25,127.0
2005-01-26,127.0
2005-01-27,130.0
2005-01-28,130.0
2005-01-29,132.0
2005-01-30,132.0
2005-01-31,131.0
2005-02-01,130.0
2005-02-02,129.0
2005-02-03,129.0
2005-02-04,127.0
2005-02-05,125.0
2005-02-06,124.0
2005-02-07,127.0
2005-02-08,126.0
2005-02-09,124.0
2005-02-10,124.0
2005-02-11,124.0
2005-02-12,126.0
2005-02-13,126.0
2005-02-14,130.0
2005-02-15,131.0
2005-02-16,128.0
2005-02-17,127.0
2005-02-18,128.0
2005-02-19,128.0
2005-02-20,131.0
2005-02-21,130.0
2005-02-22,129.0
2005-02-23,129.0
2005-02-24,129.0
2005-02-25,128.0
2005-02-26,127.0
2005-02-27,127.0
2005-02-28,127.0
2005-03-01,127.0
2005-03-02,128.0
2005-03-03,128.0
2005-03-04,128.0
2005-03-05,129.0
2005-03-06,129.0
2005-03-07,129.0
2005-03-08,127.0
2005-03-09,123.0
2005-03-10,122.0
2005-03-11,122.0
2005-03-12,121.0
2005-03-13,120.0
2005-03-14,118.0
2005-03-15,118.0
2005-03-16,118.0
2005-03-17,117.0
2005-03-18,114.0
2005-03-19,113.0
2005-03-20,117.0
2005-03-21,117.0
2005-03-22,117.0
2005-03-23,127.0
2005-03-24,123.0
2005-03-25,122.0
2005-03-26,119.0
2005-03-27,117.0
2005-03-28,121.0
2005-03-29,121.0
2005-03-30,121.0
2005-03-31,119.0
2005-04-01,118.0
2005-04-02,117.0
2005-04-03,117.0
2005-04-04,115.0
2005-04-05,113.0
2005-04-06,113.0
2005-04-07,113.0
2005-04-08,114.0
2005-04-09,116.0
2005-04-10,117.0
2005-04-11,115.0
2005-04-12,113.0
2005-04-13,121.0
2005-04-14,125.0
2005-04-15,126.0
2005-04-16,130.0
2005-04-17,131.0
2005-04-18,131.0
2005-04-19,139.0
2005-04-20,143.0
2005-04-21,142.0
2005-04-22,141.0
2005-04-23,141.0
2005-04-24,142.0
2005-04-25,144.0
2005-04-26,139.0
2005-04-27,153.0
2005-04-28,159.0
2005-04-29,164.0
2005-04-30,163.0
2005-05-01,160.0
2005-05-02,149.0
2005-05-03,166.0
2005-05-04,199.0
2005-05-05,200.0
2005-05-06,204.0
2005-05-07,205.0
2005-05-08,206.0
2005-05-09,205.0
2005-05-10,213.0
2005-05-11,233.0
2005-05-12,238.0
2005-05-13,236.0
2005-05-14,231.0
2005-05-15,228.0
2005-05-16,208.0
2005-05-17,181.0
2005-05-18,161.0
2005-05-19,156.0
2005-05-20,236.0
2005-05-21,288.0
2005-05-22,291.0
2005-05-23,384.0
2005-05-24,535.0
2005-05-25,701.0
2005-05-26,845.0
2005-05-27,976.0
2005-05-28,1100.0
2005-05-29,1230.0
2005-05-30,1350.0
2005-05-31,1490.0
2005-06-01,1670.0
2005-06-02,1840.0
2005-06-03,1870.0
2005-06-04,1840.0
2005-06-05,1770.0
2005-06-06,1590.0
2005-06-07,1440.0
2005-06-08,1070.0
2005-06-09,832.0
2005-06-10,799.0
2005-06-11,800.0
2005-06-12,806.0
2005-06-13,807.0
2005-06-14,807.0
2005-06-15,748.0
2005-06-16,719.0
2005-06-17,771.0
2005-06-18,815.0
2005-06-19,939.0
2005-06-20,953.0
2005-06-21,952.0
2005-06-22,1070.0
2005-06-23,1160.0
2005-06-24,1020.0
2005-06-25,874.0
2005-06-26,813.0
2005-06-27,770.0
2005-06-28,729.0
2005-06-29,714.0
2005-06-30,663.0
2005-07-01,584.0
2005-07-02,532.0
2005-07-03,480.0
2005-07-04,462.0
2005-07-05,443.0
2005-07-06,433.0
2005-07-07,489.0
2005-07-08,511.0
2005-07-09,503.0
2005-07-10,504.0
2005-07-11,449.0
2005-07-12,413.0
2005-07-13,403.0
2005-07-14,354.0
2005-07-15,230.0
2005-07-16,161.0
2005-07-17,167.0